Simultaneous Nadir Overpasses (SNOs) Predictions

Prediction of SNOs between AURA and NPP Satellite Orbit:

Table of predicted SNOs for the next 14.0 days since TLE Epoch: 5/24/2025
Index Date (AURA) Time (AURA) Lat,Lon (AURA) SZA (AURA ) Date (NPP) Time (NPP) Lat,Lon (NPP) SZA (NPP ) Distance(km) Time Diff (sec)
1 05/25/2025 08:53:46 -81.08, 145.90 112.33 05/25/2025 08:52:58 -81.08, 145.78 112.28 2.13 48
2 05/25/2025 09:43:04 81.11, -45.89 67.59 05/25/2025 09:43:40 81.10, -46.07 67.59 3.08 36
3 05/27/2025 20:05:32 -81.11, -21.48 112.82 05/27/2025 20:05:22 -81.11, -21.34 112.83 2.40 10
4 05/27/2025 20:54:31 81.49, 154.05 66.10 05/27/2025 20:55:44 81.28, 154.54 65.92 25.43 73
5 05/30/2025 06:28:00 81.10, 2.74 66.86 05/30/2025 06:27:05 81.09, 2.78 66.89 0.78 55
6 05/30/2025 07:17:20 -81.11, 170.55 113.17 05/30/2025 07:17:50 -81.10, 170.40 113.17 2.73 30
7 06/01/2025 17:39:47 81.10,-165.12 66.52 06/01/2025 17:39:32 81.10,-165.15 66.54 0.56 15
8 06/01/2025 18:29:06 -81.13, 3.09 113.57 06/01/2025 18:30:15 -81.13, 3.23 113.63 2.38 69
9 06/04/2025 04:02:15 -81.09,-140.91 113.74 06/04/2025 04:01:16 -81.09,-140.84 113.71 1.39 59
10 06/04/2025 04:51:33 81.11, 27.17 66.20 06/04/2025 04:51:58 81.12, 27.28 66.17 1.87 25
11 06/06/2025 15:14:00 -81.11, 51.54 114.04 06/06/2025 15:13:42 -81.11, 51.56 114.03 0.38 18



Historial Predications of SNOs between AURA and NPP
